Volver al catálogo

STARLINK-3233

ActivoComunicacionesVLEO
NORAD 49746·PAYLOAD·🇺🇸 United States

Lanzado Dec 2, 2021 desde Cape Canaveral Space Force Station

Loading…

Próximos Pases (próximas 24 horas)

TLE

ActualizadoSource: CelesTrak SupGP

Época: Sep 15, 2026, 02:17 UTC

1 49746C 21115Y   26258.09562500  .00014558  00000+0  41750-3 0  2580
2 49746  53.1609  13.0228 0001522  81.4274  87.7704 15.35316539    13

Sigue STARLINK-3233 en tiempo real con AllMySat

Download on the App Store